Salt Lake City, UT

6:11 PM MDT on August 18, 2017 (GMT -0600)
Salt Lake City International

Weather History for KSLC - March, 2014

Change the Weather History Date:

Monday, March 17, 2014

  Actual Average Record
Temperature  
Mean Temperature 50 °F 44 °F  
Max Temperature 63 °F 54 °F 74 °F (2007)
Min Temperature 36 °F 34 °F 17 °F (1917)
Degree Days  
Heating Degree Days 15 21  
Month to date heating degree days 263 393  
Since 1 July heating degree days 4250 4649  
Cooling Degree Days 0 0  
Month to date cooling degree days 0 0  
Year to date cooling degree days 0 0  
Moisture  
Dew Point 20 °F    
Average Humidity 46    
Maximum Humidity 76    
Minimum Humidity 16    
Precipitation  
Precipitation T in 0.06 in 0.76 in (2002)
Month to date precipitation 0.35 0.91  
Year to date precipitation 3.12 3.41  
Snow  
Snow T in 0.20 in 9.50 in (1920)
Month to date snowfall T 3.8  
Since 1 July snowfall 35.0 49.2  
Snow Depth 0.00 in    
Sea Level Pressure  
Sea Level Pressure 29.75 in    
Wind  
Wind Speed 19 mph (WNW)    
Max Wind Speed 40 mph    
Max Gust Speed 53 mph    
Visibility 10 miles    
Events Rain , Snow    
T = Trace of Precipitation, MM = Missing Value Source: NWS Daily Summary

Daily Weather History Graph

Daily Weather History Graph

Search for Another Location

Airport or City:

Trip Planner

Search our weather history database for the weather conditions in past years. The results will help you decide how hot, cold, wet, or windy it might be!

Date:

Astronomy

Mar. 17, 2014 Rise Set
Actual Time 7:36 AM MDT 7:36 PM MDT
Civil Twilight 7:08 AM MDT 8:04 PM MDT
Nautical Twilight 6:36 AM MDT 8:36 PM MDT
Astronomical Twilight 6:04 AM MDT 9:08 PM MDT
Moon 8:58 PM MDT (3/17) 7:53 AM MDT (3/17)
Length of Visible Light 12h 55m
Length of Day
12h 00m
Full, 99% of the Moon is Illuminated
Mar 17
Full
Mar 23
Last Quarter
Mar 30
New
Apr 7
First Quarter
Apr 15
Full

Hourly Weather History & Observations

Time (MDT) Temp. Windchill Dew Point Humidity Pressure Visibility Wind Dir Wind Speed Gust Speed Precip Events Conditions
12:53 AM 55.9 °F - 24.1 °F 29% 29.88 in 10.0 mi SSE 16.1 mph - N/A   Mostly Cloudy
1:53 AM 55.9 °F - 23.0 °F 28% 29.82 in 10.0 mi SE 13.8 mph - N/A   Mostly Cloudy
2:53 AM 57.0 °F - 21.9 °F 26% 29.77 in 10.0 mi SSE 11.5 mph - N/A   Overcast
3:53 AM 57.9 °F - 21.0 °F 24% 29.72 in 10.0 mi South 16.1 mph 27.6 mph N/A   Mostly Cloudy
4:53 AM 57.0 °F - 21.0 °F 25% 29.66 in 10.0 mi South 11.5 mph - N/A   Overcast
5:53 AM 59.0 °F - 19.0 °F 21% 29.62 in 10.0 mi South 15.0 mph 25.3 mph N/A   Mostly Cloudy
6:53 AM 59.0 °F - 18.0 °F 20% 29.58 in 10.0 mi South 23.0 mph 28.8 mph N/A   Overcast
7:53 AM 57.9 °F - 18.0 °F 21% 29.55 in 10.0 mi South 21.9 mph 29.9 mph N/A   Mostly Cloudy
8:53 AM 59.0 °F - 17.1 °F 20% 29.55 in 10.0 mi WSW 13.8 mph 21.9 mph N/A   Mostly Cloudy
9:53 AM 62.1 °F - 18.0 °F 18% 29.52 in 10.0 mi West 19.6 mph 28.8 mph N/A   Mostly Cloudy
10:53 AM 62.1 °F - 17.1 °F 18% 29.56 in 7.0 mi WNW 26.5 mph 39.1 mph N/A   Mostly Cloudy
11:53 AM 51.1 °F - 28.9 °F 43% 29.70 in 7.0 mi NNW 36.8 mph 47.2 mph N/A   Mostly Cloudy
12:53 PM 46.9 °F - 21.9 °F 37% 29.76 in 10.0 mi WNW 21.9 mph 35.7 mph N/A   Mostly Cloudy
1:53 PM 46.0 °F 37.6 °F 18.0 °F 33% 29.78 in 9.0 mi WNW 24.2 mph 40.3 mph 0.00 in Rain Light Rain
2:53 PM 45.0 °F 36.4 °F 18.0 °F 34% 29.78 in 10.0 mi NW 23.0 mph 36.8 mph 0.00 in   Mostly Cloudy
3:53 PM 46.9 °F - 8.1 °F 21% 29.78 in 10.0 mi NW 27.6 mph 46.0 mph N/A   Mostly Cloudy
4:53 PM 48.0 °F - 7.0 °F 19% 29.79 in 10.0 mi WNW 26.5 mph 39.1 mph N/A   Scattered Clouds
5:53 PM 46.0 °F 37.4 °F 10.0 °F 23% 29.81 in 10.0 mi WNW 25.3 mph 36.8 mph N/A   Mostly Cloudy
6:53 PM 46.0 °F 37.0 °F 12.9 °F 26% 29.81 in 10.0 mi NW 27.6 mph 38.0 mph N/A   Mostly Cloudy
7:53 PM 43.0 °F 35.1 °F 18.0 °F 37% 29.82 in 10.0 mi North 17.3 mph 35.7 mph N/A   Mostly Cloudy
8:02 PM 42.1 °F 33.6 °F 21.0 °F 43% 29.88 in 10.0 mi North 18.4 mph - N/A   Mostly Cloudy
8:53 PM 39.9 °F 31.4 °F 28.0 °F 63% 29.86 in 9.0 mi North 16.1 mph - 0.00 in   Unknown
9:53 PM 37.9 °F 30.5 °F 30.0 °F 73% 29.87 in 9.0 mi NNE 11.5 mph - 0.00 in Snow Light Snow
10:53 PM 39.0 °F 32.3 °F 28.0 °F 65% 29.88 in 9.0 mi North 10.4 mph - 0.00 in   Overcast
11:53 PM 37.0 °F 27.4 °F 28.0 °F 70% 29.94 in 9.0 mi North 17.3 mph - 0.00 in Snow Light Snow